This demonstration page uses our WeatherBlox Daily Observations layout. Learn more.

Left ArrowRight Arrow

Hourly Observations for July 29, 2018

Temp ( °F °C ) Dew Point ( °F °C ) Humidity (%) Winds ( mph kmh ) Pressure ( in mb ) Visibility ( mi km ) Precip ( " mm )
12:53 am 00:53 Clear 80 26.7 46 7.8 30 30 ESE 5 7 29.90 1013 10 16 0.00 0.00
1:53 am 01:53 Clear 80 26.7 46 7.8 30 30 ESE 6 9 29.91 1013 10 16 0.00 0.00
2:53 am 02:53 Clear 77 25 47 8.3 35 35 SE 6 9 29.91 1013 10 16 0.00 0.00
3:53 am 03:53 Clear 75 23.9 48 8.9 39 39 ESE 7 11 29.91 1013 10 16 0.00 0.00
4:53 am 04:53 Clear 75 23.9 49 9.4 40 40 ESE 6 9 29.91 1013 10 16 0.00 0.00
5:53 am 05:53 Clear 73 22.8 50 10 44 44 ESE 5 7 29.90 1013 10 16 0.00 0.00
6:53 am 06:53 Clear 73 22.8 52 11.1 48 48 SE 6 9 29.90 1013 10 16 0.00 0.00
7:53 am 07:53 Sunny 75 23.9 55 12.8 50 50 SE 7 11 29.91 1013 10 16 0.00 0.00
8:53 am 08:53 Sunny 79 26.1 57 13.9 47 47 SE 7 11 29.92 1013 10 16 0.00 0.00
9:53 am 09:53 Sunny 86 30 61 16.1 43 43 S 9 15 29.92 1013 10 16 0.00 0.00
10:53 am 10:53 Sunny 89 31.7 61 16.1 39 39 SSE 8 13 29.92 1013 10 16 0.00 0.00
11:53 am 11:53 Sunny 94 34.4 57 13.9 29 29 SE 10 17 29.90 1013 10 16 0.00 0.00
12:53 pm 12:53 Sunny 96 35.6 56 13.3 26 26 SSW 7 11 29.89 1012 10 16 0.00 0.00
1:53 pm 13:53 Sunny 98 36.7 53 11.7 22 22 VRB 6 9 29.87 1011 10 16 0.00 0.00
2:53 pm 14:53 Sunny 100 37.8 50 10 18 18 ESE 9 15 29.85 1011 10 16 0.00 0.00
3:53 pm 15:53 Sunny 101 38.3 51 10.6 19 19 E 12 19 29.83 1010 10 16 0.00 0.00
4:53 pm 16:53 Sunny 102 38.9 51 10.6 18 18 SE 13 20 29.80 1009 10 16 0.00 0.00
5:53 pm 17:53 Sunny 102 38.9 50 10 17 17 SE 15 24 29.79 1009 10 16 0.00 0.00
6:53 pm 18:53 Sunny 101 38.3 49 9.4 17 17 SE 16 26 29.78 1008 10 16 0.00 0.00
7:53 pm 19:53 Sunny 99 37.2 49 9.4 18 18 SE 12 19 29.78 1008 10 16 0.00 0.00
8:53 pm 20:53 Clear 94 34.4 49 9.4 21 21 SSE 7 11 29.79 1009 10 16 0.00 0.00
9:53 pm 21:53 Clear 90 32.2 49 9.4 24 24 SE 8 13 29.79 1009 10 16 0.00 0.00
10:53 pm 22:53 Clear 87 30.6 50 10 28 28 SE 8 13 29.80 1009 10 16 0.00 0.00
11:53 pm 23:53 Clear 85 29.4 50 10 30 30 SE 8 13 29.82 1010 10 16 0.00 0.00

Powered by AerisWeather